Location: Newark
(48.9358°N, 1.4000°E)
Time: 00:13:39
(UTC+00:00)

N. Korean satellite - Pass Details

Date: 16 October 2019
Orbit: 456 x 506 km, 97.2° (Epoch: 21 November)

Event Time Altitude Azimuth Distance (km) Brightness Sun altitude
Rises 04:54:28 0° 28° (NNE) 2,541 10.7 -14.1°
Reaches altitude 10° 04:57:08 10° 50° (NE) 1,666 10.1 -13.7°
Maximum altitude 04:59:29 17° 92° (E) 1,314 10.0 -13.3°
Drops below altitude 10° 05:01:51 10° 133° (SE) 1,675 10.0 -12.9°
Sets 05:04:32 0° 155° (SSE) 2,561 10.6 -12.4°
